Weather reports worldwide

Advertisment
Stockholm/observat., Sweden (2484): temperature & dewpoint: 11.10.2019 23:00:00 - 17.10.2019 23:00:00 (CEST)Stockholm/observat., Sweden (2484): reduced air pressure: 11.10.2019 23:00:00 - 17.10.2019 23:00:00 (CEST)
Date & Time tt [°C] td [°C] ppp [hPa]
17.10.2019 23:00:00 8,1 7,2 1011,1
17.10.2019 22:00:00 8,2 7,3 1011,1
17.10.2019 21:00:00 7,9 7,5 1010,7
17.10.2019 20:00:00 7,8 7,2 1010,8
17.10.2019 19:00:00 7,9 7,1 1010,6
17.10.2019 18:00:00 7,8 7,2 1010,4
17.10.2019 17:00:00 8,0 7,2 1010,2
17.10.2019 16:00:00 7,8 7,2 1009,8
17.10.2019 15:00:00 7,9 7,1 1009,4
17.10.2019 14:00:00 8,0 7,2 1009,2
17.10.2019 13:00:00 7,9 7,0 1008,9
17.10.2019 12:00:00 7,6 6,9 1008,6
17.10.2019 11:00:00 7,5 6,9 1008,0
17.10.2019 10:00:00 7,1 6,7 1007,5
17.10.2019 09:00:00 7,0 6,6 1007,1
17.10.2019 08:00:00 6,9 6,5 1006,8
17.10.2019 07:00:00 6,9 6,5 1006,1
17.10.2019 06:00:00 6,9 6,6 1006,1
17.10.2019 05:00:00 7,0 6,7 1006,3
17.10.2019 04:00:00 7,1 6,8 1006,1
17.10.2019 03:00:00 7,2 6,9 1006,4
17.10.2019 02:00:00 7,3 7,0 1006,2
17.10.2019 01:00:00 7,3 7,0 1006,3
17.10.2019 00:00:00 7,8 7,5 1006,3
16.10.2019 23:00:00 7,9 7,6 1006,2
16.10.2019 22:00:00 8,0 7,7 1006,5
16.10.2019 21:00:00 8,2 7,9 1006,7
16.10.2019 20:00:00 8,3 7,9 1007,1
16.10.2019 19:00:00 8,4 7,6 1007,3
16.10.2019 18:00:00 8,7 7,9 1007,5
16.10.2019 17:00:00 8,8 8,3 1007,1
16.10.2019 16:00:00 9,1 8,6 1007,4
16.10.2019 15:00:00 9,3 8,4 1007,4
16.10.2019 14:00:00 9,3 8,4 1007,6
16.10.2019 13:00:00 9,3 8,2 1007,9
16.10.2019 12:00:00 9,4 8,3 1008,0
16.10.2019 11:00:00 9,8 8,9 1008,2
16.10.2019 10:00:00 9,8 9,3 1008,2
16.10.2019 09:00:00 9,9 9,4 1008,9
16.10.2019 08:00:00 9,9 9,6 1008,7
16.10.2019 07:00:00 9,9 9,6 1008,9
16.10.2019 06:00:00 9,8 9,5 1009,2
16.10.2019 05:00:00 9,9 9,6 1009,0
16.10.2019 04:00:00 9,9 9,4 1009,8
16.10.2019 03:00:00 10,0 9,4 1009,9
16.10.2019 02:00:00 10,0 9,4 1010,8
16.10.2019 01:00:00 9,9 9,3 1011,2
16.10.2019 00:00:00 9,9 9,6 1012,1
15.10.2019 23:00:00 9,5 9,2 1012,8
15.10.2019 22:00:00 9,0 8,7 1013,2
15.10.2019 21:00:00 8,6 8,3 1013,7
15.10.2019 20:00:00 8,2 7,9 1013,9
15.10.2019 19:00:00 8,0 7,7 1014,7
15.10.2019 18:00:00 7,8 7,4 1014,8
15.10.2019 17:00:00 7,7 7,1 1015,7
15.10.2019 16:00:00 7,6 6,7 1016,4
15.10.2019 15:00:00 8,4 6,7 1017,2
15.10.2019 14:00:00 8,8 6,8 1018,2
15.10.2019 13:00:00 - - -
15.10.2019 12:00:00 8,9 6,3 1018,3
15.10.2019 11:00:00 8,5 6,0 1018,8
15.10.2019 10:00:00 8,3 5,9 1018,8
15.10.2019 09:00:00 8,0 6,1 1019,3
15.10.2019 08:00:00 7,4 6,3 1019,0
15.10.2019 07:00:00 7,3 6,1 1019,3
15.10.2019 06:00:00 7,1 6,0 1019,6
15.10.2019 05:00:00 7,2 6,1 1019,8
15.10.2019 04:00:00 7,0 6,3 1019,3
15.10.2019 03:00:00 6,9 6,3 1019,4
15.10.2019 02:00:00 6,9 6,3 1018,9
15.10.2019 01:00:00 7,0 6,4 1018,9
15.10.2019 00:00:00 7,2 6,5 1018,3
14.10.2019 23:00:00 7,0 6,4 1018,0
14.10.2019 22:00:00 6,8 6,2 1017,0
14.10.2019 21:00:00 6,6 5,9 1016,5
14.10.2019 20:00:00 7,0 6,1 1015,3
14.10.2019 19:00:00 7,8 6,7 1014,3
14.10.2019 18:00:00 8,6 6,9 1013,1
14.10.2019 17:00:00 9,0 7,0 1011,8
14.10.2019 16:00:00 9,2 7,1 1010,2
14.10.2019 15:00:00 9,2 7,5 1008,5
14.10.2019 14:00:00 8,6 7,7 1006,7
14.10.2019 13:00:00 8,3 7,7 1004,9
14.10.2019 12:00:00 8,2 7,8 1003,4
14.10.2019 11:00:00 8,0 7,7 1002,3
14.10.2019 10:00:00 7,9 7,6 1001,4
14.10.2019 09:00:00 7,8 7,5 1000,8
14.10.2019 08:00:00 7,6 7,2 1001,0
14.10.2019 07:00:00 7,7 7,1 1001,9
14.10.2019 06:00:00 8,0 7,4 1002,6
14.10.2019 05:00:00 8,7 8,1 1003,5
14.10.2019 04:00:00 9,3 9,0 1004,8
14.10.2019 03:00:00 9,1 8,6 1006,1
14.10.2019 02:00:00 9,3 7,4 1007,0
14.10.2019 01:00:00 9,1 7,4 1007,6
14.10.2019 00:00:00 8,8 6,8 1008,7
13.10.2019 23:00:00 9,0 6,6 1010,2
13.10.2019 22:00:00 8,8 6,4 1010,4
13.10.2019 21:00:00 9,4 6,1 1010,5
13.10.2019 20:00:00 10,6 6,0 1010,5
13.10.2019 19:00:00 10,3 5,7 1010,4
13.10.2019 18:00:00 10,4 5,8 1010,2
13.10.2019 17:00:00 10,9 5,4 1010,1
13.10.2019 16:00:00 11,8 4,8 1009,5
13.10.2019 15:00:00 11,9 4,4 1009,3
13.10.2019 14:00:00 11,4 5,5 1008,5
13.10.2019 13:00:00 11,6 5,9 1008,1
13.10.2019 12:00:00 10,4 6,2 1007,5
13.10.2019 11:00:00 10,0 6,3 1006,6
13.10.2019 10:00:00 9,9 6,4 1005,9
13.10.2019 09:00:00 10,1 6,4 1004,6
13.10.2019 08:00:00 10,0 6,5 1003,4
13.10.2019 07:00:00 10,4 6,9 1002,4
13.10.2019 06:00:00 10,4 7,3 1001,6
13.10.2019 05:00:00 10,6 7,5 1000,6
13.10.2019 04:00:00 10,6 7,3 999,8
13.10.2019 03:00:00 10,5 7,2 999,3
13.10.2019 02:00:00 10,4 7,8 998,7
13.10.2019 01:00:00 10,8 7,3 998,4
13.10.2019 00:00:00 11,1 7,4 997,9
12.10.2019 23:00:00 10,9 7,6 997,4
12.10.2019 22:00:00 11,1 7,8 997,1
12.10.2019 21:00:00 11,2 7,1 996,7
12.10.2019 20:00:00 11,3 6,6 996,4
12.10.2019 19:00:00 11,9 6,4 996,5
12.10.2019 18:00:00 12,1 6,4 996,1
12.10.2019 17:00:00 12,6 6,8 995,9
12.10.2019 16:00:00 12,7 7,6 995,6
12.10.2019 15:00:00 12,1 8,4 995,4
12.10.2019 14:00:00 12,2 8,5 995,0
12.10.2019 13:00:00 11,5 8,2 994,7
12.10.2019 12:00:00 10,7 8,1 994,2
12.10.2019 11:00:00 10,2 8,5 993,7
12.10.2019 10:00:00 9,6 8,4 993,2
12.10.2019 09:00:00 9,5 7,8 992,5
12.10.2019 08:00:00 9,0 7,8 991,7
12.10.2019 07:00:00 8,6 7,5 991,2
12.10.2019 06:00:00 9,0 7,9 990,8
12.10.2019 05:00:00 8,8 7,2 990,5
12.10.2019 04:00:00 9,5 7,9 990,4
12.10.2019 03:00:00 9,7 8,5 990,2
12.10.2019 02:00:00 10,0 8,9 990,7
12.10.2019 01:00:00 10,5 9,7 990,9
12.10.2019 00:00:00 10,6 9,8 991,1
11.10.2019 23:00:00 10,9 9,7 991,7

tt = temperature
td = dewpoint
ppp = reduced air pressure

Next stations